STARLINK-2217 (48568 NORAD) Tracking and Keplerian Element Data

This shows tracking and keplerian element data for the satellite.

Feedback or suggestion? Click here.




ElementValue
Catalog48568
NameSTARLINK-2217
Epoch Orbit1199
Epoch Day214.76762138
Epoch Year2021
RAAN113.1587
Inclination53.0416
Eccentricity0.0002035
Argument of Perigee80.4464
Mean Anonmoly279.6754
Mean Motion15.06396695
Decay Rate8.28E-06
L11 48568U 21041R 21214.76762138 .00000828 00000-0 74531-4 0 9991
L22 48568 53.0416 113.1587 0002035 80.4464 279.6754 15.06396695 11994

Live tracking and technical data element details for STARLINK-2217 (NORAD 48568). STARLINK-2217 can be tracked NOW for your location showing map with azimuth and elevation plus other details from your city location.

Track the satellite on the map from your city or location and see movement details for azimuth, elevation, latitude, longitude, range, height, and movement on the map or in text.







IsCatalogInMostPopularTable: catalog: 48568, numindb: 19
Update: records affected: 1



GetName: 48568 STARLINK-2217

Hit Count: updated at: Tue, 03 Aug 2021 22:56:14 GMT